Regional Weather Roundup
Issued by NWS

Home | Current Version | Previous Version | Text Only | Print | Product List | Glossary Off
Versions: 1 2 3 4 5 6 7 8 9 10 11 12 13 14 15 16 17 18 19 20 21 22 23 24 25 26 27

000
ASUS45 KBOU 041807
RWRCO

WEATHER ROUNDUP FOR COLORADO
NATIONAL WEATHER SERVICE DENVER/BOULDER CO
1100 AM MST SUN DEC 04 2016

NOTE: "FAIR" INDICATES FEW OR NO CLOUDS BELOW 12000 FEET WITH NO
SIGNIFICANT WEATHER AND/OR OBSTRUCTIONS TO VISIBILITY.

COZ001>005-013-030-031-041900-
...NORTHWEST COLORADO...

CITY           SKY/WX    TMP DP  RH WIND       PRES   REMARKS
CRAIG          CLOUDY    27  12  53 E9        30.13F WCI  18
HAYDEN         CLOUDY    23  10  58 SE9       30.12F WCI  13
MEEKER         FAIR      20  12  71 S3        30.16F
MOUNT WERNER   NOT AVBL
STEAMBOAT SPGS CLOUDY    18  12  77 CALM      30.12F
WALDEN           N/A     28  10  47 S12G20    30.05F WCI  18
$$

COZ006>008-011-041900-
...WEST CENTRAL VALLEYS...

CITY           SKY/WX    TMP DP  RH WIND       PRES   REMARKS
GRAND JUNCTION FAIR      32  16  51 S6        30.23F WCI  26
MONTROSE       FAIR      30  11  45 CALM      30.23F
EAGLE          SUNNY     27   9  46 CALM      30.21F
RIFLE          FAIR      26  15  63 CALM      30.22F
DELTA          NOT AVBL
NUCLA          FAIR      30  10  43 CALM      30.25F
$$

COZ017>023-064>068-041900-
...SOUTHWEST COLORADO...

CITY           SKY/WX    TMP DP  RH WIND       PRES   REMARKS
DURANGO        FAIR      31  22  69 CALM      30.17F
CORTEZ         FAIR      33  16  49 CALM      30.20F
PAGOSA SPRINGS FAIR      30  17  57 CALM      30.17F
TELLURIDE      FAIR      32   7  34 S5        30.18F WCI  27
WOLF CREEK PAS FAIR      27   3  36 NW3       30.22F
$$

COZ009-010-012-014-032>034-037-058>063-041900-
...CENTRAL COLORADO...

CITY           SKY/WX    TMP DP  RH WIND       PRES   REMARKS
ASPEN          FAIR      24   9  52 CALM      30.12F
BUENA VISTA    FAIR      33   2  27 SE3       30.07F
COPPER MTN     FAIR      23   5  46 MISG      30.10F
BERTHOUD PASS  FAIR      12   1  62 W32G44    30.01F WCI -10
COTTONWOOD PAS FAIR      34   0  23 W5        30.07F WCI  30
GUNNISON       FAIR      16   4  59 CALM      30.23F
KREMMLING      CLOUDY    23  10  58 CALM      30.16F
LEADVILLE      FAIR      29   0  28 N12G18    30.09F WCI  19
MONARCH PASS   FAIR      14   3  62 W37G43    30.20F WCI  -9
SALIDA         FAIR      38   6  26 NW3       30.15F
SUNLIGHT       FAIR      19  18  93 SW12      30.16F WCI   7
WILKERSON PASS FAIR      23   3  42 NW16G36   30.05F WCI  10
$$

COZ069>075-041900-
...SAN LUIS VALLEY/SANGRE DE CRISTO MOUNTAINS...

CITY           SKY/WX    TMP DP  RH WIND       PRES   REMARKS
ALAMOSA        FAIR      24  11  57 VRB5      30.17F WCI  18
LA VETA PASS   FAIR      27   7  43 NE22G31   30.10F WCI  12
SAGUACHE       FAIR      28   9  43 SE6       30.17F WCI  22
$$

COZ035-036-038>040-041900-
...NORTHERN COLORADO FRONT RANGE...

CITY           SKY/WX    TMP DP  RH WIND       PRES   REMARKS
DENVER INTL AP FAIR      48   5  17 W9        29.94F
DMNS CITY PARK   N/A     49   1  14 N6G12     29.93F
AURORA         MOSUNNY   47   4  17 CALM      29.95F
FRONT RANGE AP NOT AVBL
ERIE MUNI ARPT FAIR      38  10  30 CALM      29.95F
BOULDER MUN AP FAIR      41  10  28 NE3       29.94F
CENTENNIAL     FAIR      46   1  15 S8        29.95F
BROOMFIELD     MOSUNNY   48   9  20 W18G29    29.94F
FORT COLLINS   FAIR      32  16  51 CALM      29.95F
LONGMONT       FAIR      38  13  35 CALM      29.96F
$$

COZ041-046-047-076>085-087-088-041900-
...PIKES PEAK/PALMER DIVIDE AND SOUTHERN FOOTHILLS...

CITY           SKY/WX    TMP DP  RH WIND       PRES   REMARKS
COLO. SPRINGS  FAIR      36  11  35 SE7       30.01F
A. F. ACADEMY  FAIR      37   9  31 S9        29.98F
SCHRIEVER AFB  NOT AVBL
ELLICOTT       LGT RAIN N/A N/A N/A SW10      30.00F
FALCON         FAIR      39   5  24 S12       30.00F
FORT CARSON    FAIR      35  10  34 S6        30.00F WCI  30
LIMON          FAIR      41  11  29 S15       29.99F
MONUMENT HILL  FAIR      45   3  18 W3        29.98F
TRINIDAD       FAIR      41  13  31 S6        30.05F
$$

COZ042>045-048>051-090-091-041900-
...NORTHEAST COLORADO...

CITY           SKY/WX    TMP DP  RH WIND       PRES   REMARKS
GREELEY ARPT   FAIR      33  12  41 SW3       29.96F
AKRON          FAIR      43  12  28 S16       29.96F
BURLINGTON     FAIR      45   6  20 SW6       30.02F
WRAY           NOT AVBL
STERLING       FAIR      37  14  38 SW10      29.98F
HOLYOKE        FAIR      46  12  25 W12       29.97F
FORT MORGAN    FAIR      37  11  35 CALM      29.98F
$$

COZ086-089-092>099-041900-
...SOUTHEAST COLORADO...

CITY           SKY/WX    TMP DP  RH WIND       PRES   REMARKS
PUEBLO         FAIR      38  11  32 CALM      30.03F
LA JUNTA       FAIR      38  20  48 SW7       30.06F
LAMAR          FAIR      39  22  50 SW8       30.06F
SPRINGFIELD      N/A     44  13  28 VRB5      30.07F
$$




USA.gov is the U.S. government's official web portal to all federal, state and local government web resources and services.